| time (UTC) | temp F | wind direction | speed MPH | gust MPH | rain 1hr in | rain 24hr in | rain mn in | humidity % | barometer mb |
| 20260904103904 | 62 | 303 | 17.0 | 27.0 | 0.00 | 0.18 | 0.10 | 76 | 1004.5 |
| 20260904103406 | 62 | 285 | 15.0 | 30.0 | 0.00 | 0.18 | 0.10 | 76 | 1004.6 |
| 20260904102904 | 62 | 262 | 16.0 | 39.0 | 0.00 | 0.18 | 0.10 | 75 | 1004.7 |
| 20260904102405 | 62 | 261 | 21.0 | 39.0 | 0.00 | 0.18 | 0.10 | 76 | 1004.5 |
| 20260904101904 | 62 | 268 | 17.0 | 29.0 | 0.00 | 0.18 | 0.10 | 78 | 1004.5 |
| 20260904101403 | 62 | 250 | 19.0 | 29.0 | 0.00 | 0.18 | 0.10 | 78 | 1004.5 |
| 20260904100904 | 62 | 245 | 11.0 | 28.0 | 0.00 | 0.18 | 0.10 | 79 | 1004.7 |
| 20260904100406 | 61 | 261 | 11.0 | 28.0 | 0.00 | 0.18 | 0.10 | 80 | 1004.6 |
| 20260904095906 | 61 | 283 | 12.0 | 28.0 | 0.00 | 0.18 | 0.10 | 80 | 1004.6 |
| 20260904095406 | 61 | 264 | 14.0 | 26.0 | 0.00 | 0.18 | 0.10 | 81 | 1004.6 |
| 20260904094903 | 60 | 283 | 10.0 | 23.0 | 0.00 | 0.18 | 0.10 | 82 | 1004.7 |
| 20260904094627 | 60 | 295 | 12.0 | 26.0 | 0.00 | 0.18 | 0.10 | 83 | 1004.6 |
| 20260904094128 | 60 | 300 | 11.0 | 26.0 | 0.00 | 0.18 | 0.10 | 83 | 1004.7 |
| 20260904093403 | 60 | 296 | 9.0 | 22.0 | 0.00 | 0.18 | 0.10 | 83 | 1004.6 |
| 20260904092904 | 59 | 272 | 13.0 | 22.0 | 0.00 | 0.18 | 0.10 | 83 | 1004.5 |
| 20260904092404 | 59 | 290 | 5.0 | 22.0 | 0.00 | 0.18 | 0.10 | 84 | 1004.6 |
| 20260904091905 | 59 | 274 | 14.0 | 22.0 | 0.00 | 0.18 | 0.10 | 84 | 1004.7 |
| 20260904091625 | 60 | 299 | 12.0 | 22.0 | 0.00 | 0.18 | 0.10 | 84 | 1004.6 |
| 20260904090903 | 60 | 210 | 7.0 | 18.0 | 0.00 | 0.18 | 0.10 | 84 | 1004.7 |
| 20260904090404 | 60 | 241 | 12.0 | 18.0 | 0.00 | 0.18 | 0.10 | 84 | 1004.6 |
| 20260904085903 | 60 | 275 | 7.0 | 20.0 | 0.00 | 0.18 | 0.10 | 85 | 1004.6 |
| 20260904085404 | 60 | 251 | 10.0 | 20.0 | 0.00 | 0.18 | 0.10 | 85 | 1004.5 |
| 20260904085123 | 60 | 288 | 6.0 | 15.0 | 0.00 | 0.18 | 0.10 | 85 | 1004.5 |
| 20260904084626 | 60 | 235 | 6.0 | 19.0 | 0.00 | 0.20 | 0.10 | 85 | 1004.5 |
| 20260904083905 | 60 | 303 | 10.0 | 19.0 | 0.00 | 0.21 | 0.10 | 86 | 1004.5 |
| 20260904083405 | 59 | 310 | 11.0 | 17.0 | 0.00 | 0.22 | 0.10 | 86 | 1004.4 |
| 20260904082904 | 59 | 255 | 6.0 | 15.0 | 0.00 | 0.22 | 0.10 | 87 | 1004.4 |
| 20260904082403 | 59 | 302 | 6.0 | 16.0 | 0.00 | 0.22 | 0.10 | 88 | 1004.3 |
| 20260904081904 | 59 | 241 | 9.0 | 16.0 | 0.00 | 0.22 | 0.10 | 89 | 1004.4 |
| 20260904081404 | 59 | 299 | 6.0 | 11.0 | 0.00 | 0.22 | 0.10 | 89 | 1004.2 |
| 20260904080904 | 59 | 299 | 4.0 | 14.0 | 0.00 | 0.22 | 0.10 | 89 | 1003.9 |
| 20260904080404 | 58 | 250 | 6.0 | 19.0 | 0.00 | 0.22 | 0.10 | 89 | 1004.0 |
| 20260904075905 | 58 | 269 | 11.0 | 21.0 | 0.00 | 0.22 | 0.10 | 89 | 1003.9 |
| 20260904075404 | 58 | 248 | 9.0 | 21.0 | 0.00 | 0.22 | 0.10 | 90 | 1003.5 |
| 20260904074906 | 58 | 252 | 9.0 | 17.0 | 0.00 | 0.22 | 0.10 | 90 | 1003.6 |
| 20260904074404 | 58 | 251 | 8.0 | 17.0 | 0.00 | 0.22 | 0.10 | 90 | 1003.4 |
| 20260904073903 | 58 | 243 | 11.0 | 16.0 | 0.00 | 0.22 | 0.10 | 90 | 1003.7 |
| 20260904073404 | 58 | 226 | 9.0 | 18.0 | 0.00 | 0.22 | 0.10 | 91 | 1003.8 |
| 20260904072903 | 58 | 237 | 10.0 | 18.0 | 0.00 | 0.22 | 0.10 | 91 | 1003.7 |
| 20260904072406 | 58 | 247 | 10.0 | 17.0 | 0.00 | 0.22 | 0.10 | 91 | 1003.7 |
| 20260904071904 | 58 | 258 | 7.0 | 15.0 | 0.00 | 0.22 | 0.10 | 91 | 1003.9 |
| 20260904071404 | 58 | 268 | 8.0 | 16.0 | 0.00 | 0.22 | 0.10 | 91 | 1003.9 |
| 20260904070904 | 58 | 240 | 9.0 | 18.0 | 0.00 | 0.22 | 0.10 | 91 | 1003.8 |
| 20260904070404 | 58 | 257 | 10.0 | 18.0 | 0.00 | 0.22 | 0.10 | 91 | 1003.8 |
| 20260904065904 | 58 | 247 | 10.0 | 20.0 | 0.00 | 0.22 | 0.10 | 91 | 1003.7 |
| 20260904065405 | 58 | 268 | 9.0 | 20.0 | 0.00 | 0.22 | 0.10 | 92 | 1003.5 |
| 20260904064403 | 58 | 250 | 11.0 | 20.0 | 0.00 | 0.23 | 0.10 | 93 | 1003.6 |
| 20260904063904 | 58 | 276 | 11.0 | 18.0 | 0.00 | 0.23 | 0.10 | 93 | 1003.3 |
| 20260904063409 | 58 | 247 | 11.0 | 20.0 | 0.00 | 0.23 | 0.10 | 93 | 1003.4 |
| 20260904062905 | 58 | 272 | 12.0 | 20.0 | 0.00 | 0.23 | 0.10 | 93 | 1003.4 |
| 20260904062404 | 58 | 223 | 11.0 | 20.0 | 0.00 | 0.23 | 0.10 | 94 | 1003.4 |
| 20260904062130 | 58 | 237 | 10.0 | 18.0 | 0.00 | 0.23 | 0.10 | 94 | 1003.7 |
| 20260904061404 | 58 | 278 | 8.0 | 19.0 | 0.00 | 0.23 | 0.10 | 94 | 1003.5 |
| 20260904060903 | 57 | 268 | 11.0 | 19.0 | 0.00 | 0.23 | 0.10 | 95 | 1003.5 |
| 20260904060405 | 57 | 275 | 9.0 | 18.0 | 0.00 | 0.23 | 0.10 | 95 | 1003.5 |
| 20260904055405 | 57 | 240 | 7.0 | 13.0 | 0.00 | 0.23 | 0.10 | 95 | 1003.3 |
| 20260904054905 | 57 | 248 | 6.0 | 15.0 | 0.00 | 0.23 | 0.10 | 95 | 1003.4 |
| 20260904054405 | 58 | 278 | 8.0 | 15.0 | 0.00 | 0.23 | 0.10 | 95 | 1003.4 |
| 20260904054131 | 58 | 268 | 6.0 | 14.0 | 0.00 | 0.23 | 0.10 | 96 | 1003.5 |
| 20260904053406 | 58 | 290 | 8.0 | 14.0 | 0.00 | 0.23 | 0.10 | 96 | 1003.4 |
| 20260904052906 | 58 | 264 | 5.0 | 16.0 | 0.00 | 0.23 | 0.10 | 96 | 1003.2 |
| 20260904052405 | 58 | 258 | 9.0 | 17.0 | 0.00 | 0.23 | 0.10 | 96 | 1003.6 |
| 20260904051906 | 58 | 266 | 10.0 | 17.0 | 0.00 | 0.23 | 0.10 | 96 | 1003.4 |
| 20260904051404 | 58 | 264 | 5.0 | 11.0 | 0.00 | 0.23 | 0.10 | 96 | 1003.3 |
| 20260904050904 | 58 | 290 | 6.0 | 13.0 | 0.00 | 0.23 | 0.10 | 96 | 1003.2 |
| 20260904050405 | 58 | 274 | 4.0 | 13.0 | 0.00 | 0.23 | 0.10 | 96 | 1003.4 |
| 20260904045904 | 58 | 248 | 4.0 | 6.0 | 0.00 | 0.23 | 0.10 | 96 | 1003.4 |
| 20260904045404 | 58 | 257 | 3.0 | 6.0 | 0.00 | 0.23 | 0.10 | 96 | 1003.3 |
| 20260904044905 | 57 | 265 | 4.0 | 6.0 | 0.00 | 0.24 | 0.10 | 96 | 1003.4 |
| 20260904044403 | 57 | 259 | 4.0 | 7.0 | 0.00 | 0.24 | 0.10 | 96 | 1003.2 |
| 20260904043404 | 57 | 243 | 3.0 | 6.0 | 0.00 | 0.24 | 0.10 | 96 | 1003.2 |
| 20260904042903 | 57 | 224 | 3.0 | 6.0 | 0.00 | 0.24 | 0.10 | 96 | 1003.0 |
| 20260904042404 | 57 | 257 | 3.0 | 5.0 | 0.00 | 0.24 | 0.10 | 96 | 1003.0 |
| 20260904042131 | 57 | 257 | 2.0 | 5.0 | 0.00 | 0.24 | 0.10 | 96 | 1003.0 |
| 20260904041403 | 57 | 286 | 1.0 | 4.0 | 0.00 | 0.24 | 0.10 | 96 | 1002.9 |
| 20260904040903 | 57 | 286 | 2.0 | 4.0 | 0.00 | 0.24 | 0.10 | 96 | 1003.2 |
| 20260904040629 | 57 | 288 | 2.0 | 3.0 | 0.00 | 0.24 | 0.10 | 96 | 1003.6 |
| 20260904035903 | 56 | 288 | 2.0 | 3.0 | 0.00 | 0.24 | 0.10 | 95 | 1003.6 |
| 20260904035404 | 56 | 288 | 1.0 | 2.0 | 0.00 | 0.24 | 0.10 | 95 | 1003.6 |
| 20260904034903 | 56 | 288 | 1.0 | 2.0 | 0.00 | 0.24 | 0.10 | 96 | 1003.4 |
| 20260904034404 | 56 | 288 | 0.0 | 0.0 | 0.00 | 0.24 | 0.10 | 95 | 1003.6 |
| 20260904033903 | 56 | 288 | 0.0 | 0.0 | 0.00 | 0.24 | 0.10 | 95 | 1003.8 |
| 20260904033403 | 56 | 288 | 0.0 | 0.0 | 0.00 | 0.24 | 0.10 | 95 | 1003.6 |
| 20260904032903 | 56 | 288 | 0.0 | 2.0 | 0.00 | 0.24 | 0.10 | 95 | 1003.9 |
| 20260904032405 | 56 | 288 | 0.0 | 2.0 | 0.00 | 0.24 | 0.10 | 95 | 1003.9 |
| 20260904031904 | 56 | 288 | 1.0 | 3.0 | 0.00 | 0.24 | 0.10 | 95 | 1003.8 |
| 20260904031405 | 56 | 288 | 2.0 | 3.0 | 0.01 | 0.24 | 0.10 | 95 | 1003.6 |
| 20260904030903 | 56 | 288 | 0.0 | 2.0 | 0.01 | 0.24 | 0.10 | 95 | 1004.0 |
| 20260904030404 | 56 | 288 | 1.0 | 2.0 | 0.01 | 0.24 | 0.10 | 95 | 1003.7 |
| 20260904025903 | 56 | 288 | 0.0 | 0.0 | 0.01 | 0.24 | 0.10 | 95 | 1003.8 |
| 20260904025404 | 56 | 288 | 0.0 | 0.0 | 0.01 | 0.24 | 0.10 | 95 | 1003.9 |
| 20260904024903 | 56 | 288 | 0.0 | 1.0 | 0.01 | 0.24 | 0.10 | 95 | 1004.0 |
| 20260904024403 | 56 | 288 | 0.0 | 1.0 | 0.02 | 0.24 | 0.10 | 95 | 1004.1 |
| 20260904023903 | 56 | 288 | 0.0 | 1.0 | 0.02 | 0.24 | 0.10 | 95 | 1004.3 |
| 20260904023405 | 56 | 288 | 0.0 | 2.0 | 0.02 | 0.24 | 0.10 | 95 | 1004.3 |
| 20260904022904 | 56 | 288 | 0.0 | 2.0 | 0.02 | 0.24 | 0.10 | 95 | 1004.3 |
| 20260904022632 | 56 | 288 | 0.0 | 2.0 | 0.02 | 0.24 | 0.10 | 95 | 1004.2 |
| 20260904021903 | 56 | 288 | 1.0 | 2.0 | 0.03 | 0.24 | 0.10 | 95 | 1004.2 |
| 20260904021403 | 56 | 288 | 1.0 | 2.0 | 0.02 | 0.24 | 0.09 | 95 | 1004.3 |
| 20260904020904 | 56 | 288 | 1.0 | 2.0 | 0.02 | 0.24 | 0.09 | 95 | 1004.3 |
| 20260904020404 | 56 | 288 | 0.0 | 2.0 | 0.02 | 0.24 | 0.09 | 95 | 1004.4 |
| 20260904015904 | 56 | 288 | 0.0 | 2.0 | 0.02 | 0.21 | 0.09 | 95 | 1004.5 |
| 20260904015403 | 56 | 288 | 2.0 | 2.0 | 0.03 | 0.21 | 0.09 | 95 | 1004.5 |
| 20260904014904 | 56 | 288 | 0.0 | 1.0 | 0.03 | 0.21 | 0.09 | 95 | 1004.9 |
| 20260904014403 | 56 | 288 | 0.0 | 2.0 | 0.02 | 0.21 | 0.09 | 95 | 1004.9 |
| 20260904014131 | 56 | 288 | 1.0 | 2.0 | 0.02 | 0.21 | 0.09 | 95 | 1004.9 |
| 20260904013403 | 56 | 288 | 1.0 | 3.0 | 0.03 | 0.21 | 0.09 | 95 | 1004.8 |
| 20260904012904 | 56 | 288 | 1.0 | 3.0 | 0.02 | 0.21 | 0.08 | 95 | 1004.8 |
| 20260904012403 | 56 | 288 | 0.0 | 3.0 | 0.02 | 0.21 | 0.08 | 95 | 1004.9 |
| 20260904011905 | 56 | 288 | 2.0 | 3.0 | 0.02 | 0.21 | 0.07 | 95 | 1005.1 |
| 20260904011635 | 56 | 288 | 1.0 | 4.0 | 0.02 | 0.21 | 0.07 | 94 | 1005.1 |
| 20260904010903 | 56 | 288 | 3.0 | 4.0 | 0.02 | 0.21 | 0.07 | 94 | 1004.9 |
| 20260904010403 | 57 | 288 | 1.0 | 2.0 | 0.02 | 0.21 | 0.07 | 94 | 1004.8 |
| 20260904010144 | 57 | 288 | 1.0 | 3.0 | 0.03 | 0.18 | 0.07 | 94 | 1004.9 |
| 20260904005403 | 57 | 288 | 2.0 | 3.0 | 0.02 | 0.18 | 0.06 | 94 | 1005.1 |
| 20260904005131 | 57 | 288 | 2.0 | 3.0 | 0.03 | 0.18 | 0.06 | 94 | 1005.2 |
| 20260904004403 | 57 | 288 | 1.0 | 3.0 | 0.04 | 0.18 | 0.06 | 94 | 1005.3 |
| 20260904003905 | 57 | 288 | 3.0 | 3.0 | 0.04 | 0.18 | 0.06 | 94 | 1005.5 |
| 20260904003405 | 57 | 288 | 2.0 | 3.0 | 0.04 | 0.18 | 0.06 | 94 | 1005.4 |
| 20260904002903 | 57 | 288 | 2.0 | 2.0 | 0.04 | 0.18 | 0.06 | 94 | 1005.5 |
| 20260904002404 | 57 | 288 | 1.0 | 2.0 | 0.05 | 0.18 | 0.06 | 94 | 1005.8 |
| 20260904002134 | 57 | 288 | 1.0 | 2.0 | 0.05 | 0.18 | 0.06 | 94 | 1005.9 |
| 20260904001403 | 57 | 288 | 1.0 | 3.0 | 0.05 | 0.18 | 0.05 | 94 | 1005.8 |
| 20260904001127 | 57 | 288 | 1.0 | 3.0 | 0.05 | 0.18 | 0.05 | 94 | 1005.9 |
| 20260904000626 | 57 | 288 | 2.0 | 3.0 | 0.05 | 0.18 | 0.05 | 94 | 1005.8 |
| 20260903235903 | 57 | 288 | 2.0 | 4.0 | 0.04 | 0.14 | 0.04 | 94 | 1006.1 |
| 20260903235404 | 57 | 288 | 1.0 | 4.0 | 0.05 | 0.14 | 0.04 | 94 | 1006.3 |
| 20260903234903 | 57 | 289 | 2.0 | 4.0 | 0.04 | 0.14 | 0.03 | 94 | 1006.4 |
| 20260903234403 | 57 | 289 | 2.0 | 4.0 | 0.04 | 0.14 | 0.02 | 93 | 1006.5 |
| 20260903233905 | 57 | 289 | 2.0 | 4.0 | 0.04 | 0.14 | 0.02 | 93 | 1006.5 |
| 20260903233403 | 57 | 290 | 2.0 | 4.0 | 0.04 | 0.14 | 0.02 | 93 | 1006.8 |
| 20260903232905 | 57 | 290 | 2.0 | 4.0 | 0.04 | 0.14 | 0.02 | 94 | 1006.8 |
| 20260903232403 | 57 | 290 | 1.0 | 3.0 | 0.04 | 0.14 | 0.01 | 94 | 1007.1 |
| 20260903231903 | 57 | 290 | 2.0 | 3.0 | 0.04 | 0.14 | 0.01 | 94 | 1007.1 |
| 20260903231403 | 57 | 290 | 2.0 | 3.0 | 0.03 | 0.15 | 0.00 | 93 | 1007.0 |
| 20260903230904 | 57 | 290 | 2.0 | 3.0 | 0.03 | 0.15 | 0.00 | 93 | 1007.1 |
| 20260903230422 | 57 | 290 | 2.0 | 5.0 | 0.04 | 0.15 | 0.00 | 93 | 1007.1 |
| 20260903225903 | 57 | 290 | 2.0 | 5.0 | 0.04 | 0.11 | 0.14 | 93 | 1007.3 |
| 20260903225403 | 57 | 293 | 2.0 | 6.0 | 0.03 | 0.11 | 0.14 | 93 | 1007.3 |
| 20260903224636 | 58 | 264 | 3.0 | 5.0 | 0.03 | 0.11 | 0.13 | 93 | 1007.4 |
| 20260903224129 | 58 | 265 | 3.0 | 6.0 | 0.03 | 0.11 | 0.13 | 93 | 1007.5 |
| 20260903223404 | 58 | 285 | 4.0 | 6.0 | 0.03 | 0.11 | 0.13 | 93 | 1007.5 |
| 20260903222903 | 58 | 255 | 4.0 | 6.0 | 0.04 | 0.11 | 0.13 | 92 | 1007.5 |
| 20260903221905 | 58 | 295 | 2.0 | 5.0 | 0.03 | 0.11 | 0.12 | 92 | 1007.7 |
| 20260903221405 | 58 | 295 | 4.0 | 5.0 | 0.03 | 0.11 | 0.12 | 92 | 1007.8 |
| 20260903220903 | 58 | 296 | 2.0 | 6.0 | 0.03 | 0.11 | 0.12 | 91 | 1008.0 |
| 20260903220405 | 58 | 295 | 4.0 | 9.0 | 0.02 | 0.11 | 0.11 | 91 | 1008.0 |
| 20260903220139 | 58 | 302 | 4.0 | 10.0 | 0.02 | 0.09 | 0.11 | 91 | 1008.1 |
| 20260903215404 | 58 | 314 | 5.0 | 10.0 | 0.02 | 0.09 | 0.11 | 90 | 1008.2 |
| 20260903214903 | 58 | 303 | 4.0 | 10.0 | 0.02 | 0.09 | 0.10 | 90 | 1008.2 |
| 20260903214634 | 59 | 299 | 4.0 | 10.0 | 0.02 | 0.09 | 0.10 | 90 | 1008.2 |
| 20260903214134 | 60 | 321 | 5.0 | 15.0 | 0.02 | 0.09 | 0.10 | 89 | 1008.4 |
| 20260903213404 | 60 | 305 | 6.0 | 15.0 | 0.01 | 0.09 | 0.09 | 90 | 1008.4 |
| 20260903213135 | 61 | 282 | 6.0 | 11.0 | 0.00 | 0.09 | 0.09 | 91 | 1008.4 |
| 20260903212404 | 61 | 285 | 6.0 | 11.0 | 0.00 | 0.09 | 0.09 | 91 | 1008.5 |
| 20260903211900 | 61 | 274 | 7.0 | 11.0 | 0.00 | 0.09 | 0.09 | 91 | 1008.4 |
| 20260903211359 | 61 | 230 | 4.0 | 11.0 | 0.00 | 0.09 | 0.09 | 91 | 1008.5 |
| 20260903210859 | 61 | 210 | 3.0 | 7.0 | 0.00 | 0.09 | 0.09 | 91 | 1008.4 |
| 20260903210400 | 61 | 227 | 3.0 | 9.0 | 0.00 | 0.09 | 0.09 | 91 | 1008.5 |
| 20260903205856 | 61 | 228 | 5.0 | 9.0 | 0.00 | 0.09 | 0.09 | 91 | 1008.6 |
| 20260903205357 | 61 | 228 | 4.0 | 9.0 | 0.00 | 0.09 | 0.09 | 91 | 1008.5 |
| 20260903204857 | 61 | 227 | 4.0 | 13.0 | 0.00 | 0.09 | 0.09 | 91 | 1008.6 |
| 20260903204620 | 61 | 231 | 4.0 | 13.0 | 0.00 | 0.09 | 0.09 | 91 | 1008.5 |
| 20260903203854 | 61 | 234 | 5.0 | 9.0 | 0.00 | 0.09 | 0.09 | 91 | 1008.6 |
| 20260903203355 | 61 | 234 | 5.0 | 9.0 | 0.00 | 0.09 | 0.09 | 91 | 1008.6 |
| 20260903202856 | 61 | 233 | 6.0 | 9.0 | 0.00 | 0.09 | 0.09 | 91 | 1008.7 |
| 20260903202355 | 61 | 220 | 5.0 | 10.0 | 0.00 | 0.09 | 0.09 | 91 | 1008.7 |
| 20260903201856 | 61 | 255 | 5.0 | 11.0 | 0.01 | 0.09 | 0.09 | 91 | 1008.9 |
| 20260903201352 | 61 | 264 | 6.0 | 11.0 | 0.01 | 0.09 | 0.09 | 91 | 1008.9 |
| 20260903200851 | 61 | 228 | 6.0 | 10.0 | 0.01 | 0.09 | 0.09 | 91 | 1008.9 |
| 20260903200352 | 62 | 233 | 5.0 | 9.0 | 0.01 | 0.09 | 0.09 | 91 | 1008.8 |
| 20260903195851 | 62 | 259 | 5.0 | 10.0 | 0.01 | 0.08 | 0.09 | 91 | 1008.8 |
| 20260903195350 | 62 | 227 | 6.0 | 13.0 | 0.02 | 0.08 | 0.09 | 90 | 1008.8 |
| 20260903194858 | 62 | 238 | 6.0 | 13.0 | 0.02 | 0.08 | 0.09 | 90 | 1008.6 |
| 20260903194356 | 62 | 238 | 8.0 | 15.0 | 0.02 | 0.08 | 0.09 | 91 | 1008.8 |
| 20260903193853 | 62 | 221 | 5.0 | 15.0 | 0.02 | 0.08 | 0.09 | 91 | 1008.9 |
| 20260903193351 | 62 | 212 | 4.0 | 10.0 | 0.02 | 0.08 | 0.09 | 91 | 1008.8 |
| 20260903192855 | 62 | 241 | 4.0 | 12.0 | 0.02 | 0.08 | 0.09 | 91 | 1008.8 |
| 20260903192614 | 62 | 207 | 5.0 | 12.0 | 0.02 | 0.09 | 0.09 | 91 | 1009.0 |
| 20260903191844 | 62 | 214 | 3.0 | 9.0 | 0.01 | 0.09 | 0.08 | 91 | 1009.1 |
| 20260903191343 | 63 | 216 | 5.0 | 9.0 | 0.01 | 0.09 | 0.08 | 90 | 1009.0 |
| 20260903190844 | 63 | 220 | 3.0 | 7.0 | 0.01 | 0.09 | 0.08 | 90 | 1009.1 |
| 20260903190342 | 63 | 220 | 4.0 | 7.0 | 0.01 | 0.09 | 0.08 | 90 | 1009.1 |
| 20260903185841 | 63 | 248 | 3.0 | 7.0 | 0.01 | 0.08 | 0.08 | 90 | 1009.3 |
| 20260903185341 | 63 | 241 | 4.0 | 9.0 | 0.00 | 0.08 | 0.07 | 89 | 1009.5 |
| 20260903184841 | 63 | 248 | 4.0 | 10.0 | 0.00 | 0.08 | 0.07 | 89 | 1009.5 |
| 20260903184340 | 63 | 244 | 5.0 | 10.0 | 0.00 | 0.08 | 0.07 | 89 | 1009.6 |
| 20260903183842 | 63 | 264 | 6.0 | 13.0 | 0.00 | 0.08 | 0.07 | 88 | 1009.6 |
| 20260903183339 | 63 | 245 | 8.0 | 13.0 | 0.00 | 0.08 | 0.07 | 88 | 1009.5 |
| 20260903182839 | 63 | 237 | 8.0 | 13.0 | 0.00 | 0.08 | 0.07 | 88 | 1009.6 |
| 20260903182341 | 63 | 264 | 7.0 | 13.0 | 0.00 | 0.09 | 0.07 | 88 | 1009.6 |
| 20260903181839 | 64 | 293 | 6.0 | 11.0 | 0.00 | 0.09 | 0.07 | 88 | 1009.7 |
| 20260903181341 | 64 | 254 | 7.0 | 11.0 | 0.00 | 0.09 | 0.07 | 88 | 1009.8 |
| 20260903180839 | 64 | 237 | 6.0 | 11.0 | 0.00 | 0.09 | 0.07 | 88 | 1009.9 |
| 20260903175840 | 64 | 237 | 4.0 | 10.0 | 0.00 | 0.10 | 0.07 | 88 | 1010.0 |
| 20260903175339 | 64 | 244 | 5.0 | 11.0 | 0.00 | 0.10 | 0.07 | 87 | 1010.1 |
| 20260903174839 | 64 | 224 | 7.0 | 12.0 | 0.00 | 0.10 | 0.07 | 87 | 1010.2 |
| 20260903174338 | 65 | 254 | 6.0 | 12.0 | 0.00 | 0.11 | 0.07 | 86 | 1010.2 |
| 20260903174107 | 65 | 223 | 6.0 | 12.0 | 0.00 | 0.11 | 0.07 | 86 | 1010.2 |
| 20260903173339 | 65 | 209 | 6.0 | 12.0 | 0.00 | 0.12 | 0.07 | 86 | 1010.2 |
| 20260903172838 | 65 | 289 | 8.0 | 12.0 | 0.00 | 0.12 | 0.07 | 85 | 1010.2 |
| 20260903172338 | 65 | 255 | 8.0 | 12.0 | 0.00 | 0.13 | 0.07 | 85 | 1010.0 |
| 20260903172107 | 65 | 266 | 7.0 | 12.0 | 0.00 | 0.13 | 0.07 | 85 | 1009.9 |
| 20260903171338 | 65 | 247 | 6.0 | 12.0 | 0.00 | 0.13 | 0.07 | 85 | 1009.8 |
| 20260903170838 | 65 | 238 | 6.0 | 12.0 | 0.00 | 0.13 | 0.07 | 85 | 1009.9 |
| 20260903170339 | 65 | 217 | 6.0 | 12.0 | 0.00 | 0.13 | 0.07 | 85 | 1009.8 |
| 20260903165838 | 65 | 264 | 5.0 | 21.0 | 0.00 | 0.13 | 0.07 | 84 | 1009.9 |
| 20260903165339 | 65 | 255 | 6.0 | 21.0 | 0.00 | 0.13 | 0.07 | 84 | 1010.0 |
| 20260903164837 | 65 | 265 | 9.0 | 17.0 | 0.00 | 0.13 | 0.07 | 84 | 1010.1 |
| 20260903164337 | 65 | 235 | 9.0 | 17.0 | 0.00 | 0.13 | 0.07 | 83 | 1010.1 |
| 20260903163838 | 65 | 213 | 8.0 | 15.0 | 0.00 | 0.13 | 0.07 | 82 | 1010.3 |
| 20260903163340 | 65 | 252 | 10.0 | 17.0 | 0.00 | 0.13 | 0.07 | 82 | 1010.3 |
| 20260903162837 | 66 | 247 | 8.0 | 17.0 | 0.00 | 0.13 | 0.07 | 81 | 1010.4 |
| 20260903162338 | 66 | 241 | 8.0 | 20.0 | 0.00 | 0.13 | 0.07 | 81 | 1010.4 |
| 20260903161838 | 66 | 258 | 11.0 | 20.0 | 0.00 | 0.13 | 0.07 | 80 | 1010.6 |
| 20260903161336 | 67 | 343 | 8.0 | 13.0 | 0.00 | 0.13 | 0.07 | 79 | 1010.6 |
| 20260903160837 | 67 | 243 | 7.0 | 12.0 | 0.00 | 0.13 | 0.07 | 79 | 1010.7 |
| 20260903160336 | 67 | 282 | 7.0 | 14.0 | 0.00 | 0.13 | 0.07 | 78 | 1010.8 |
| 20260903155841 | 67 | 250 | 5.0 | 18.0 | 0.00 | 0.13 | 0.07 | 78 | 1010.8 |
| 20260903155337 | 67 | 275 | 12.0 | 18.0 | 0.00 | 0.13 | 0.07 | 78 | 1010.6 |
| 20260903154836 | 67 | 281 | 6.0 | 17.0 | 0.00 | 0.13 | 0.07 | 78 | 1010.7 |
| 20260903154336 | 67 | 281 | 7.0 | 16.0 | 0.00 | 0.13 | 0.07 | 79 | 1010.9 |
| 20260903153835 | 67 | 250 | 10.0 | 16.0 | 0.00 | 0.13 | 0.07 | 79 | 1010.9 |
| 20260903153336 | 67 | 240 | 8.0 | 15.0 | 0.00 | 0.13 | 0.07 | 79 | 1010.8 |
| 20260903153107 | 67 | 293 | 7.0 | 15.0 | 0.00 | 0.13 | 0.07 | 79 | 1010.9 |
| 20260903152335 | 67 | 285 | 6.0 | 15.0 | 0.00 | 0.13 | 0.07 | 79 | 1010.8 |
| 20260903151834 | 67 | 282 | 7.0 | 15.0 | 0.00 | 0.13 | 0.07 | 78 | 1011.0 |
| 20260903151336 | 67 | 299 | 8.0 | 19.0 | 0.00 | 0.13 | 0.07 | 78 | 1011.2 |
| 20260903151057 | 68 | 299 | 9.0 | 19.0 | 0.00 | 0.13 | 0.07 | 77 | 1011.2 |
| 20260903150335 | 68 | 255 | 9.0 | 17.0 | 0.00 | 0.13 | 0.07 | 76 | 1011.0 |
| 20260903145834 | 69 | 261 | 8.0 | 14.0 | 0.00 | 0.13 | 0.07 | 75 | 1010.8 |
| 20260903145558 | 69 | 262 | 7.0 | 19.0 | 0.00 | 0.13 | 0.07 | 76 | 1010.9 |
| 20260903145057 | 69 | 240 | 11.0 | 21.0 | 0.00 | 0.13 | 0.07 | 75 | 1011.0 |
| 20260903144333 | 69 | 268 | 11.0 | 21.0 | 0.00 | 0.14 | 0.07 | 76 | 1010.7 |
| 20260903143835 | 69 | 269 | 15.0 | 21.0 | 0.00 | 0.14 | 0.07 | 75 | 1010.6 |
| 20260903143336 | 69 | 227 | 10.0 | 19.0 | 0.00 | 0.14 | 0.07 | 76 | 1010.5 |
| 20260903142834 | 69 | 245 | 9.0 | 19.0 | 0.00 | 0.15 | 0.07 | 76 | 1010.6 |
| 20260903142334 | 69 | 259 | 10.0 | 19.0 | 0.00 | 0.15 | 0.07 | 77 | 1010.7 |
| 20260903141834 | 68 | 252 | 10.0 | 22.0 | 0.00 | 0.15 | 0.07 | 77 | 1010.5 |
| 20260903141556 | 68 | 278 | 11.0 | 22.0 | 0.00 | 0.15 | 0.07 | 77 | 1010.6 |
| 20260903141054 | 68 | 240 | 11.0 | 18.0 | 0.00 | 0.15 | 0.07 | 77 | 1010.8 |
| 20260903140334 | 68 | 258 | 12.0 | 19.0 | 0.00 | 0.15 | 0.07 | 77 | 1010.8 |
| 20260903135833 | 68 | 261 | 8.0 | 19.0 | 0.00 | 0.15 | 0.07 | 77 | 1010.5 |
| 20260903135333 | 68 | 226 | 11.0 | 19.0 | 0.00 | 0.15 | 0.07 | 77 | 1010.4 |
| 20260903135057 | 68 | 266 | 13.0 | 19.0 | 0.00 | 0.15 | 0.07 | 77 | 1010.6 |
| 20260903134336 | 68 | 295 | 12.0 | 17.0 | 0.00 | 0.15 | 0.07 | 77 | 1010.7 |
| 20260903133836 | 68 | 223 | 9.0 | 17.0 | 0.00 | 0.15 | 0.07 | 76 | 1010.7 |
| 20260903133333 | 68 | 261 | 11.0 | 17.0 | 0.00 | 0.15 | 0.07 | 77 | 1010.9 |
| 20260903133101 | 67 | 271 | 9.0 | 22.0 | 0.00 | 0.15 | 0.07 | 77 | 1010.9 |
| 20260903132551 | 68 | 278 | 12.0 | 22.0 | 0.00 | 0.15 | 0.07 | 76 | 1011.1 |
| 20260903131832 | 68 | 235 | 11.0 | 18.0 | 0.00 | 0.15 | 0.07 | 76 | 1011.1 |
| 20260903131333 | 67 | 234 | 8.0 | 18.0 | 0.00 | 0.15 | 0.07 | 78 | 1010.9 |
| 20260903130830 | 67 | 245 | 10.0 | 19.0 | 0.00 | 0.15 | 0.07 | 76 | 1010.9 |
| 20260903130331 | 67 | 243 | 11.0 | 19.0 | 0.00 | 0.15 | 0.07 | 76 | 1011.0 |
| 20260903125831 | 67 | 206 | 7.0 | 18.0 | 0.00 | 0.15 | 0.07 | 77 | 1010.9 |
| 20260903125329 | 67 | 248 | 10.0 | 18.0 | 0.00 | 0.15 | 0.07 | 76 | 1011.1 |
| 20260903124830 | 67 | 279 | 7.0 | 16.0 | 0.00 | 0.15 | 0.07 | 77 | 1011.1 |
| 20260903124329 | 67 | 268 | 7.0 | 15.0 | 0.00 | 0.15 | 0.07 | 77 | 1011.2 |
| 20260903123826 | 67 | 244 | 8.0 | 16.0 | 0.00 | 0.15 | 0.07 | 77 | 1011.3 |
| 20260903123553 | 67 | 278 | 9.0 | 16.0 | 0.00 | 0.15 | 0.07 | 76 | 1011.4 |
| 20260903122827 | 67 | 259 | 7.0 | 15.0 | 0.00 | 0.15 | 0.07 | 75 | 1011.6 |
| 20260903122324 | 67 | 261 | 6.0 | 19.0 | 0.00 | 0.15 | 0.07 | 76 | 1011.3 |
| 20260903121824 | 67 | 302 | 8.0 | 19.0 | 0.00 | 0.15 | 0.07 | 78 | 1011.5 |
| 20260903121324 | 66 | 306 | 8.0 | 20.0 | 0.00 | 0.15 | 0.07 | 76 | 1011.6 |
| 20260903120822 | 66 | 286 | 10.0 | 20.0 | 0.00 | 0.15 | 0.07 | 75 | 1011.5 |
| 20260903120322 | 66 | 278 | 10.0 | 22.0 | 0.00 | 0.15 | 0.07 | 75 | 1011.5 |
| 20260903115822 | 66 | 248 | 11.0 | 24.0 | 0.00 | 0.15 | 0.07 | 74 | 1011.4 |
| 20260903115322 | 66 | 266 | 14.0 | 24.0 | 0.00 | 0.15 | 0.07 | 74 | 1011.3 |
| 20260903114820 | 67 | 238 | 15.0 | 24.0 | 0.00 | 0.15 | 0.07 | 73 | 1011.3 |
| 20260903114549 | 67 | 255 | 11.0 | 23.0 | 0.00 | 0.15 | 0.07 | 75 | 1011.4 |
| 20260903113820 | 67 | 275 | 13.0 | 26.0 | 0.00 | 0.15 | 0.07 | 75 | 1011.3 |
| 20260903113538 | 67 | 259 | 12.0 | 26.0 | 0.00 | 0.15 | 0.07 | 74 | 1011.3 |
| 20260903112820 | 67 | 298 | 13.0 | 24.0 | 0.00 | 0.15 | 0.07 | 74 | 1011.2 |
| 20260903112538 | 67 | 257 | 12.0 | 24.0 | 0.00 | 0.15 | 0.07 | 75 | 1011.1 |
| 20260903111817 | 67 | 295 | 12.0 | 24.0 | 0.00 | 0.15 | 0.07 | 76 | 1011.2 |
| 20260903111315 | 66 | 319 | 12.0 | 21.0 | 0.00 | 0.15 | 0.07 | 78 | 1011.2 |
| 20260903110815 | 65 | 278 | 13.0 | 20.0 | 0.00 | 0.15 | 0.07 | 78 | 1011.1 |
| 20260903110316 | 66 | 288 | 11.0 | 20.0 | 0.00 | 0.15 | 0.07 | 79 | 1011.0 |
| 20260903105813 | 66 | 250 | 12.0 | 20.0 | 0.00 | 0.15 | 0.07 | 79 | 1010.9 |
| 20260903105313 | 66 | 272 | 12.0 | 21.0 | 0.00 | 0.15 | 0.07 | 79 | 1010.9 |
| 20260903104814 | 66 | 251 | 15.0 | 27.0 | 0.00 | 0.15 | 0.07 | 79 | 1011.0 |
| 20260903104312 | 66 | 247 | 15.0 | 27.0 | 0.00 | 0.15 | 0.07 | 79 | 1011.1 |
| 20260903104046 | 65 | 240 | 10.0 | 24.0 | 0.00 | 0.15 | 0.07 | 81 | 1010.9 |